Stations météo

réclame
Mon MeteoGroup
Dax, France (7603): Température de l'air & dewpoint: 17.09.2017 22:00:00 - 23.09.2017 22:00:00 (CEST)Dax, France (7603): Température de l'air 5cm: 17.09.2017 22:00:00 - 23.09.2017 22:00:00 (CEST)Dax, France (7603): Température de l'air -20cm & Température de l'air -100cm: 17.09.2017 22:00:00 - 23.09.2017 22:00:00 (CEST)Dax, France (7603): Vitesse du vent & gusts: 17.09.2017 22:00:00 - 23.09.2017 22:00:00 (CEST)Dax, France (7603): Direction du vent: 17.09.2017 22:00:00 - 23.09.2017 22:00:00 (CEST)Dax, France (7603): reduced air pressure: 17.09.2017 22:00:00 - 23.09.2017 22:00:00 (CEST)Dax, France (7603): visibility: 17.09.2017 22:00:00 - 23.09.2017 22:00:00 (CEST)Dax, France (7603): Ensoleillement: 17.09.2017 22:00:00 - 23.09.2017 22:00:00 (CEST)Dax, France (7603): Quantités de précipitations: 17.09.2017 22:00:00 - 23.09.2017 22:00:00 (CEST)
Date & Time tt [°C] td [°C] tt 5cm [°C] tt -20cm [°C] tt -100cm [°C] ff [km/h] ff [knt] fx [km/h] fx [knt] dd ppp [hPa] vv [km] sd [min] rr [mm]
23.09.2017 22:00:00 - - - - - - - - - - - - - -
23.09.2017 21:00:00 20,9 16,7 19,4 19,6 19,3 0 0 5 3 N 1017,8 22 0 0,0
23.09.2017 20:00:00 24,3 15,2 21,9 19,5 19,3 0 0 5 3 N 1017,2 29 34 0,0
23.09.2017 19:00:00 27,3 14,7 30,1 19,3 19,3 3 2 8 5 NW 1016,9 31 60 0,0
23.09.2017 18:00:00 28,0 14,6 30,7 19,0 19,3 4 2 10 5 SSW 1016,8 39 60 0,0
23.09.2017 17:00:00 27,8 14,1 30,9 18,8 19,3 6 3 14 8 S 1017,0 32 60 0,0
23.09.2017 16:00:00 27,7 13,6 29,9 18,5 19,3 5 3 15 8 SSE 1017,6 32 60 0,0
23.09.2017 15:00:00 26,4 14,2 28,8 18,2 19,3 6 3 13 7 ENE 1017,9 28 60 0,0
23.09.2017 14:00:00 25,0 14,8 26,5 18,0 19,3 8 4 14 8 E 1018,3 24 60 0,0
23.09.2017 13:00:00 22,8 14,4 23,9 17,9 19,3 6 4 16 9 E 1018,8 22 60 0,0
23.09.2017 12:00:00 20,3 14,9 20,8 17,8 19,3 6 3 12 6 E 1019,0 23 55 0,0
23.09.2017 11:00:00 17,6 14,5 17,6 17,9 19,3 9 5 19 10 ESE 1019,4 22 60 0,0
23.09.2017 10:00:00 14,7 12,9 12,5 17,9 19,3 5 3 13 7 NE 1019,5 14 56 0,0
23.09.2017 09:00:00 11,5 11,2 10,0 18,0 19,3 6 3 9 5 ENE 1019,5 8 47 0,0
23.09.2017 08:00:00 10,7 10,4 9,4 18,1 19,3 6 3 9 5 ENE 1019,7 5 0 0,0
23.09.2017 07:00:00 11,1 10,8 10,1 18,2 19,3 5 3 11 6 E 1019,9 4,8 0 0,0
23.09.2017 06:00:00 11,4 11,1 10,7 18,3 19,3 7 4 12 6 ESE 1020,1 5 0 0,2
23.09.2017 05:00:00 11,9 11,4 10,8 18,4 19,3 6 3 11 6 E 1020,6 7 0 0,0
23.09.2017 04:00:00 12,0 11,5 10,8 18,5 19,3 5 3 7 4 E 1021,2 8 0 0,0
23.09.2017 03:00:00 12,2 11,6 11,2 18,6 19,3 5 3 7 4 SE 1021,8 3,1 0 0,0
23.09.2017 02:00:00 13,9 13,4 12,2 18,7 19,3 3 2 6 3 ENE 1021,8 9 0 0,0
23.09.2017 01:00:00 13,5 12,4 12,5 18,7 19,3 0 0 11 6 N 1022,2 8 0 0,0
23.09.2017 00:00:00 15,0 14,4 13,1 18,8 19,3 5 3 11 6 NE 1022,3 8 0 0,0
22.09.2017 23:00:00 15,3 14,5 14,3 18,9 19,3 5 3 6 3 NNW 1022,3 6 0 0,0
22.09.2017 22:00:00 16,0 14,5 15,2 18,9 19,3 0 0 5 3 N 1022,2 10 0 0,0
22.09.2017 21:00:00 17,8 14,9 16,7 18,9 19,4 0 0 6 3 N 1022,0 15 0 0,0
22.09.2017 20:00:00 19,1 14,8 18,5 18,8 19,3 3 2 12 7 ESE 1021,8 13 40 0,0
22.09.2017 19:00:00 20,2 14,8 21,2 18,7 19,3 9 5 13 7 ESE 1021,7 9 53 0,0
22.09.2017 18:00:00 20,3 14,6 21,3 18,6 19,3 7 4 16 8 SE 1021,7 23 20 0,0
22.09.2017 17:00:00 20,6 14,9 22,1 18,4 19,4 8 4 14 8 ESE 1021,9 12 26 0,0
22.09.2017 16:00:00 20,4 15,2 21,2 18,3 19,4 5 3 11 6 SSE 1022,5 13 19 0,0
22.09.2017 15:00:00 19,3 15,0 20,2 18,2 19,4 4 2 11 6 S 1022,6 17 0 0,0
22.09.2017 14:00:00 18,6 15,3 19,2 18,1 19,3 3 2 9 5 SSE 1022,8 8 0 0,0
22.09.2017 13:00:00 17,2 15,4 17,5 18,1 19,3 4 2 10 6 - 1022,9 5 0 0,0
22.09.2017 12:00:00 15,9 15,1 16,0 18,0 19,3 5 3 7 4 ESE 1022,6 4,0 0 0,0
22.09.2017 11:00:00 14,8 14,2 14,5 18,1 19,4 2 1 9 5 - 1022,3 1,5 0 0,0
22.09.2017 10:00:00 14,2 13,7 13,6 18,1 19,3 6 4 9 5 ENE 1022,1 5 0 0,0
22.09.2017 09:00:00 13,7 13,1 13,6 18,2 19,3 0 0 8 5 N 1022,0 5 0 0,0
22.09.2017 08:00:00 14,1 13,6 13,0 18,2 19,3 3 2 5 3 ENE 1021,4 10 0 0,0
22.09.2017 07:00:00 13,7 13,2 13,0 18,3 19,4 5 3 10 5 SSE 1020,9 6 0 0,0
22.09.2017 06:00:00 13,8 13,3 13,0 18,3 19,3 2 1 8 4 E 1020,6 13 0 0,0
22.09.2017 05:00:00 13,5 13,0 12,7 18,4 19,4 0 0 4 2 N 1021,1 13 0 0,0
22.09.2017 04:00:00 13,7 13,2 12,7 18,5 19,4 2 1 4 2 S 1021,4 11 0 0,0
22.09.2017 03:00:00 13,6 13,1 12,4 18,6 19,4 2 1 4 2 S 1021,5 10 0 0,0
22.09.2017 02:00:00 14,0 13,4 12,8 18,6 19,4 0 0 3 2 N 1021,3 11 0 0,0
22.09.2017 01:00:00 14,9 14,3 13,5 18,7 19,4 0 0 5 3 N 1020,9 13 0 0,0
22.09.2017 00:00:00 15,5 14,9 14,5 18,8 19,4 3 1 6 3 SSW 1020,7 14 0 0,0
21.09.2017 23:00:00 15,8 14,5 14,9 18,8 19,4 2 1 7 4 SSE 1020,5 17 0 0,0
21.09.2017 22:00:00 17,0 15,5 16,4 18,8 19,4 3 1 10 6 W 1020,4 20 0 0,0
21.09.2017 21:00:00 17,6 15,6 17,2 18,8 19,4 4 2 13 7 W 1020,0 25 0 0,0
21.09.2017 20:00:00 18,7 15,8 18,2 18,7 19,5 7 4 19 10 W 1019,4 27 27 0,0
21.09.2017 19:00:00 20,2 15,2 20,7 18,6 19,4 9 5 19 10 W 1018,6 27 40 0,0
21.09.2017 18:00:00 21,5 16,0 22,3 18,4 19,4 10 5 25 13 W 1017,9 37 38 0,0
21.09.2017 17:00:00 22,9 15,0 24,7 18,1 19,4 15 8 25 13 W 1017,4 15 60 0,0
21.09.2017 16:00:00 23,8 14,8 26,3 17,9 19,5 13 7 24 13 WSW 1017,0 28 60 0,0
21.09.2017 15:00:00 23,2 14,5 24,9 17,7 19,5 14 7 29 16 W 1017,0 15 60 0,0
21.09.2017 14:00:00 22,4 15,5 24,6 17,4 19,4 13 7 23 13 W 1017,2 15 57 0,0
21.09.2017 13:00:00 22,3 16,6 22,5 17,3 19,5 11 6 21 12 W 1017,4 15 60 0,0
21.09.2017 12:00:00 19,6 15,5 20,3 17,2 19,5 11 6 19 10 WSW 1017,4 15 60 0,0
21.09.2017 11:00:00 16,7 12,6 16,1 17,2 19,5 3 2 8 5 S 1017,4 28 60 0,0
21.09.2017 10:00:00 13,0 10,9 10,1 17,3 19,5 0 0 6 4 N 1017,4 25 38 0,0
21.09.2017 09:00:00 9,7 8,9 7,2 17,4 19,5 2 1 5 3 ESE 1017,1 16 33 0,0
21.09.2017 08:00:00 7,5 6,8 6,8 17,5 19,5 0 0 4 2 N 1016,7 10 0 0,0
21.09.2017 07:00:00 8,0 6,9 7,1 17,7 19,5 0 0 6 3 N 1016,7 10 0 0,0
21.09.2017 06:00:00 9,7 8,5 8,4 17,8 19,5 2 1 9 5 NNE 1016,5 22 0 0,0
21.09.2017 05:00:00 9,7 8,6 8,2 17,9 19,5 7 4 10 6 ENE 1016,7 24 0 0,0
21.09.2017 04:00:00 9,6 8,5 8,7 18,0 19,5 2 1 12 6 ESE 1016,8 30 0 0,0
21.09.2017 03:00:00 11,4 9,3 9,6 18,1 19,5 7 4 9 5 NE 1017,2 35 0 0,0
21.09.2017 02:00:00 12,2 9,4 10,6 18,2 19,5 5 3 11 6 E 1017,1 36 0 0,0
21.09.2017 01:00:00 13,0 9,4 11,6 18,3 19,5 8 5 12 7 E 1017,3 32 0 0,0
21.09.2017 00:00:00 13,6 9,0 11,6 18,4 19,5 6 3 13 7 E 1017,5 44 0 0,0
20.09.2017 23:00:00 14,3 9,3 12,6 18,5 19,5 7 4 10 5 E 1017,7 39 0 0,0
20.09.2017 22:00:00 16,0 9,0 14,1 18,5 19,5 7 4 19 10 E 1018,0 40 0 0,0
20.09.2017 21:00:00 18,0 8,5 16,6 18,5 19,6 13 7 19 10 E 1018,2 42 0 0,0
20.09.2017 20:00:00 19,1 8,4 17,4 18,4 19,5 10 6 16 9 E 1018,4 47 39 0,0
20.09.2017 19:00:00 21,6 8,8 22,6 18,3 19,6 11 6 21 12 E 1018,7 33 60 0,0
20.09.2017 18:00:00 22,3 8,4 24,2 18,1 19,6 13 7 23 13 E 1018,9 33 60 0,0
20.09.2017 17:00:00 22,3 9,5 24,9 17,9 19,6 11 6 23 13 E 1019,5 40 60 0,0
20.09.2017 16:00:00 22,0 8,5 24,5 17,7 19,6 11 6 23 12 E 1020,0 40 60 0,0
20.09.2017 15:00:00 21,5 9,4 23,3 17,4 19,6 16 8 28 15 E 1020,4 40 60 0,0
20.09.2017 14:00:00 20,2 10,0 22,0 17,2 19,6 11 6 26 14 E 1021,2 30 60 0,0
20.09.2017 13:00:00 19,0 10,5 20,7 17,1 19,6 15 8 24 13 ESE 1021,8 20 60 0,0
20.09.2017 12:00:00 17,2 11,9 19,2 17,1 19,6 9 5 18 10 E 1022,6 20 60 0,0
20.09.2017 11:00:00 13,9 11,2 14,7 17,1 19,6 3 2 9 5 ENE 1023,0 10 60 0,0
20.09.2017 10:00:00 10,8 9,9 9,4 17,2 19,6 3 2 7 4 ENE 1023,3 15 60 0,0
20.09.2017 09:00:00 8,4 8,3 6,1 17,3 19,6 3 2 6 3 ENE 1023,5 1,5 50 0,0
20.09.2017 08:00:00 7,0 6,7 6,0 17,4 19,6 0 0 5 3 N 1023,7 0,5 0 0,0
20.09.2017 07:00:00 7,0 6,7 5,8 17,5 19,6 0 0 5 3 N 1023,6 0,8 0 0,0
20.09.2017 06:00:00 7,4 7,0 5,8 17,7 19,6 0 0 5 3 N 1024,0 11 0 0,0
20.09.2017 05:00:00 7,9 7,5 6,4 17,8 19,7 3 2 5 3 ENE 1024,2 13 0 0,0
20.09.2017 04:00:00 8,2 7,6 7,0 17,9 19,7 2 1 4 2 N 1024,5 23 0 0,0
20.09.2017 03:00:00 9,1 8,6 7,3 18,1 19,7 0 0 6 3 N 1025,0 7 0 0,0
20.09.2017 02:00:00 9,4 8,8 8,1 18,2 19,7 0 0 2 1 N 1025,2 19 0 0,0
20.09.2017 01:00:00 10,0 9,2 9,2 18,3 19,7 0 0 4 2 N 1025,2 24 0 0,0
20.09.2017 00:00:00 10,6 9,8 9,5 18,4 19,7 3 1 5 3 SSE 1025,5 27 0 0,0
19.09.2017 23:00:00 11,7 10,4 10,5 18,5 19,7 0 0 4 2 N 1025,7 32 0 0,0
19.09.2017 22:00:00 12,8 10,9 11,8 18,6 19,7 0 0 4 2 N 1025,8 28 0 0,0
19.09.2017 21:00:00 14,4 10,8 13,7 18,6 19,7 2 1 8 4 NW 1025,3 35 0 0,0
19.09.2017 20:00:00 16,4 10,7 15,7 18,5 19,7 4 2 16 9 WNW 1025,0 35 44 0,0
19.09.2017 19:00:00 18,3 9,9 19,9 18,4 19,7 11 6 21 11 WNW 1024,6 36 60 0,0
19.09.2017 18:00:00 19,0 10,0 19,3 18,2 19,7 11 6 23 12 WNW 1024,5 34 39 0,0
19.09.2017 17:00:00 19,9 9,5 20,8 18,0 19,8 10 5 26 14 W 1024,6 30 45 0,0
19.09.2017 16:00:00 20,1 9,0 20,0 17,8 19,7 14 7 25 13 W 1024,8 30 37 0,0
19.09.2017 15:00:00 20,2 9,7 20,6 17,6 19,7 11 6 26 14 W 1025,0 30 56 0,0
19.09.2017 14:00:00 19,4 10,7 19,2 17,4 19,7 13 7 31 17 WNW 1025,6 30 50 0,0
19.09.2017 13:00:00 19,1 10,4 18,2 17,3 19,8 10 6 29 15 NW 1025,5 15 39 0,0
19.09.2017 12:00:00 17,8 11,1 19,1 17,2 19,8 9 5 20 11 NW 1025,4 31 44 0,0
19.09.2017 11:00:00 16,7 12,8 18,7 17,2 19,8 4 2 9 5 WSW 1025,4 15 60 0,0
19.09.2017 10:00:00 13,3 12,7 11,8 17,3 19,8 3 2 10 5 S 1025,1 10 60 0,0
19.09.2017 09:00:00 11,0 10,8 8,0 17,4 19,8 0 0 7 4 N 1024,6 10 49 0,0
19.09.2017 08:00:00 8,9 8,6 7,2 17,5 19,8 0 0 6 3 N 1024,6 23 0 0,0
19.09.2017 07:00:00 9,5 9,2 8,7 17,6 19,8 0 0 5 3 N 1024,2 10 0 0,0
19.09.2017 06:00:00 9,1 8,8 7,5 17,7 19,9 0 0 9 5 N 1024,0 13 0 0,0
19.09.2017 05:00:00 8,7 8,4 7,3 17,8 19,9 0 0 4 2 N 1023,9 24 0 0,0
19.09.2017 04:00:00 9,0 8,5 8,1 18,0 19,9 0 0 3 2 N 1024,1 7 0 0,0
19.09.2017 03:00:00 9,0 8,5 7,4 18,1 19,9 0 0 5 3 N 1024,1 31 0 0,0
19.09.2017 02:00:00 9,8 9,3 8,7 18,2 19,9 3 2 5 3 SSE 1024,0 19 0 0,0
19.09.2017 01:00:00 10,7 10,2 9,1 18,3 19,9 2 1 6 3 S 1024,0 16 0 0,0
19.09.2017 00:00:00 11,0 10,4 9,6 18,4 19,9 2 1 4 2 SE 1024,0 17 0 0,0
18.09.2017 23:00:00 12,1 11,3 11,0 18,5 19,9 0 0 4 2 N 1023,7 33 0 0,0
18.09.2017 22:00:00 13,3 11,9 12,3 18,5 20,0 0 0 6 3 N 1023,3 37 0 0,0
18.09.2017 21:00:00 14,8 12,7 13,9 18,5 20,0 3 1 10 5 WNW 1022,5 42 0 0,0
18.09.2017 20:00:00 16,5 12,5 16,2 18,4 20,0 5 3 18 10 WNW 1021,4 41 45 0,0
18.09.2017 19:00:00 18,5 12,3 19,9 18,2 20,0 8 4 21 12 NW 1020,7 34 60 0,0
18.09.2017 18:00:00 19,3 13,0 19,0 18,1 20,0 10 6 23 12 W 1020,3 31 40 0,0
18.09.2017 17:00:00 19,1 14,4 19,1 17,9 20,0 13 7 22 12 W 1019,9 10 39 0,0
18.09.2017 16:00:00 18,4 15,3 15,9 17,7 20,0 10 5 17 9 WSW 1019,6 10 31 0,0
18.09.2017 15:00:00 15,2 13,2 14,5 17,6 20,1 5 3 20 11 NW 1019,7 10 6 6,1
18.09.2017 14:00:00 16,9 14,9 14,6 17,6 20,1 6 3 12 6 W 1019,6 27 13 0,2
18.09.2017 13:00:00 14,5 13,9 14,1 17,5 20,1 5 3 12 6 - 1019,5 7 0 2,5
18.09.2017 12:00:00 13,8 13,2 13,7 17,5 20,1 3 2 14 8 W 1019,2 3,0 0 2,8
18.09.2017 11:00:00 13,9 13,1 13,5 17,5 20,1 5 3 13 7 NNW 1018,7 4,8 0 1,4
18.09.2017 10:00:00 14,0 13,5 13,4 17,6 20,2 10 5 16 9 SSW 1018,1 10 0 0,0
18.09.2017 09:00:00 13,6 13,3 13,2 17,6 20,2 7 4 12 7 SSW 1017,7 8 0 0,2
18.09.2017 08:00:00 13,4 13,1 12,9 17,7 20,2 6 3 12 6 SSW 1017,5 8 0 0,2
18.09.2017 07:00:00 13,2 12,9 12,8 17,7 20,2 4 2 11 6 S 1017,2 11 0 0,4
18.09.2017 06:00:00 13,1 12,8 12,9 17,8 20,2 8 4 13 7 S 1017,3 10 0 0,8
18.09.2017 05:00:00 13,5 13,2 13,3 17,8 20,2 8 4 10 5 SSW 1017,8 6 0 -
18.09.2017 04:00:00 13,7 13,2 13,3 17,8 20,2 3 1 11 6 S 1017,8 5 0 2,4
18.09.2017 03:00:00 13,8 13,3 13,4 17,9 20,3 4 2 12 6 WNW 1018,1 2,2 0 1,4
18.09.2017 02:00:00 13,8 13,3 13,4 17,9 20,3 7 4 11 6 S 1018,1 14 0 0,0
18.09.2017 01:00:00 14,1 13,6 13,7 17,9 20,3 7 4 11 6 S 1018,6 11 0 0,4
18.09.2017 00:00:00 14,2 13,7 13,6 18,0 20,4 7 4 13 7 SW 1019,0 12 0 1,0
17.09.2017 23:00:00 14,0 13,4 13,7 18,0 20,4 5 3 10 5 SSE 1018,9 13 0 0,0
17.09.2017 22:00:00 14,3 13,7 13,9 18,0 20,4 6 3 9 5 SSW 1019,1 18 0 0,0

tt = Température de l'air
td = dewpoint
tt 5cm = Température de l'air 5cm
tt -20cm = Température de l'air -20cm
tt -100cm = Température de l'air -100cm
ff = Vitesse du vent
fx = gusts
dd = Direction du vent
ppp = reduced air pressure
vv = visibility
sd = Ensoleillement
rr = Quantités de précipitations

stations d'obs. à proximité